Location: Châteauvieux
(47.2310°N, 1.3828°E)
Time: 22:50:20
(UTC+00:00)

Cosmos 1464 Rocket - Pass Details

Date: 15 May 2026
Orbit: 952 x 1000 km, 82.9° (Epoch: 6 June)

Event Time Altitude Azimuth Distance (km) Brightness Sun altitude
Exits shadow 21:18:41 19° 170° (S) 2,122 5.3 -15.4°
Maximum altitude 21:23:11 64° 94° (E) 1,058 4.0 -15.9°
Drops below altitude 10° 21:29:18 10° 14° (NNE) 2,715 6.9 -16.5°
Sets 21:31:50 0° 12° (NNE) 3,673 7.7 -16.7°
